Year,Month,Day,Hour,Minute,Value (Times are PST for temperature in C)
2009,02,20,00,00,-1.10
2009,02,20,00,01,-1.00
2009,02,20,00,02,-1.00
2009,02,20,00,03,-1.00
2009,02,20,00,04,-1.00
2009,02,20,00,05,-1.00
2009,02,20,00,06,-1.00
2009,02,20,00,07,-1.10
2009,02,20,00,08,-1.10
2009,02,20,00,09,-1.10
2009,02,20,00,10,-1.10
2009,02,20,00,11,-1.10
2009,02,20,00,12,-1.10
2009,02,20,00,13,-1.10
2009,02,20,00,14,-1.10
2009,02,20,00,15,-1.10
2009,02,20,00,16,-1.10
2009,02,20,00,17,-1.20
2009,02,20,00,18,-1.20
2009,02,20,00,19,-1.20
2009,02,20,00,20,-1.20
2009,02,20,00,21,-1.20
2009,02,20,00,22,-1.30
2009,02,20,00,23,-1.30
2009,02,20,00,24,-1.30
2009,02,20,00,25,-1.30
2009,02,20,00,26,-1.30
2009,02,20,00,27,-1.30
2009,02,20,00,28,-1.30
2009,02,20,00,29,-1.30
2009,02,20,00,30,-1.30
2009,02,20,00,31,-1.30
2009,02,20,00,32,-1.30
2009,02,20,00,33,-1.30
2009,02,20,00,34,-1.30
2009,02,20,00,35,-1.30
2009,02,20,00,36,-1.30
2009,02,20,00,37,-1.30
2009,02,20,00,38,-1.30
2009,02,20,00,39,-1.30
2009,02,20,00,40,-1.30
2009,02,20,00,41,-1.30
2009,02,20,00,42,-1.30
2009,02,20,00,43,-1.30
2009,02,20,00,44,-1.20
2009,02,20,00,45,-1.20
2009,02,20,00,46,-1.20
2009,02,20,00,47,-1.30
2009,02,20,00,48,-1.30
2009,02,20,00,49,-1.30
2009,02,20,00,50,-1.30
2009,02,20,00,51,-1.30
2009,02,20,00,52,-1.30
2009,02,20,00,53,-1.30
2009,02,20,00,54,-1.40
2009,02,20,00,55,-1.40
2009,02,20,00,56,-1.40
2009,02,20,00,57,-1.40
2009,02,20,00,58,-1.40
2009,02,20,00,59,-1.50
2009,02,20,01,00,-1.50
2009,02,20,01,01,-1.60
2009,02,20,01,02,-1.60
2009,02,20,01,03,-1.60
2009,02,20,01,04,-1.70
2009,02,20,01,05,-1.70
2009,02,20,01,06,-1.70
2009,02,20,01,07,-1.70
2009,02,20,01,08,-1.70
2009,02,20,01,09,-1.70
2009,02,20,01,10,-1.80
2009,02,20,01,11,-1.80
2009,02,20,01,12,-1.80
2009,02,20,01,13,-1.80
2009,02,20,01,14,-1.80
2009,02,20,01,15,-1.80
2009,02,20,01,16,-1.80
2009,02,20,01,17,-1.80
2009,02,20,01,18,-1.80
2009,02,20,01,19,-1.80
2009,02,20,01,20,-1.80
2009,02,20,01,21,-1.80
2009,02,20,01,22,-1.80
2009,02,20,01,23,-1.70
2009,02,20,01,24,-1.80
2009,02,20,01,25,-1.80
2009,02,20,01,26,-1.80
2009,02,20,01,27,-1.80
2009,02,20,01,28,-1.80
2009,02,20,01,29,-1.80
2009,02,20,01,30,-1.80
2009,02,20,01,31,-1.80
2009,02,20,01,32,-1.80
2009,02,20,01,33,-1.90
2009,02,20,01,34,-1.90
2009,02,20,01,35,-1.90
2009,02,20,01,36,-1.90
2009,02,20,01,37,-1.90
2009,02,20,01,38,-1.90
2009,02,20,01,39,-1.90
2009,02,20,01,40,-1.90
2009,02,20,01,41,-1.90
2009,02,20,01,42,-1.90
2009,02,20,01,43,-1.90
2009,02,20,01,44,-1.90
2009,02,20,01,45,-1.90
2009,02,20,01,46,-2.00
2009,02,20,01,47,-2.00
2009,02,20,01,48,-2.00
2009,02,20,01,49,-2.10
2009,02,20,01,50,-2.10
2009,02,20,01,51,-2.10
2009,02,20,01,52,-2.10
2009,02,20,01,53,-2.10
2009,02,20,01,54,-2.10
2009,02,20,01,55,-2.10
2009,02,20,01,56,-2.10
2009,02,20,01,57,-2.10
2009,02,20,01,58,-2.10
2009,02,20,01,59,-2.10
2009,02,20,02,00,-2.00
2009,02,20,02,01,-2.00
2009,02,20,02,02,-1.90
2009,02,20,02,03,-1.90
2009,02,20,02,04,-1.90
2009,02,20,02,05,-1.90
2009,02,20,02,06,-1.90
2009,02,20,02,07,-1.90
2009,02,20,02,08,-1.90
2009,02,20,02,09,-1.90
2009,02,20,02,10,-1.80
2009,02,20,02,11,-1.80
2009,02,20,02,12,-1.80
2009,02,20,02,13,-1.80
2009,02,20,02,14,-1.90
2009,02,20,02,15,-1.90
2009,02,20,02,16,-1.90
2009,02,20,02,17,-1.90
2009,02,20,02,18,-1.90
2009,02,20,02,19,-1.90
2009,02,20,02,20,-1.90
2009,02,20,02,21,-1.90
2009,02,20,02,22,-1.90
2009,02,20,02,23,-1.90
2009,02,20,02,24,-1.90
2009,02,20,02,25,-1.90
2009,02,20,02,26,-1.90
2009,02,20,02,27,-1.90
2009,02,20,02,28,-1.90
2009,02,20,02,29,-1.90
2009,02,20,02,30,-1.90
2009,02,20,02,31,-1.90
2009,02,20,02,32,-1.90
2009,02,20,02,33,-1.90
2009,02,20,02,34,-1.90
2009,02,20,02,35,-1.90
2009,02,20,02,36,-2.00
2009,02,20,02,37,-2.00
2009,02,20,02,38,-2.00
2009,02,20,02,39,-2.00
2009,02,20,02,40,-2.10
2009,02,20,02,41,-2.10
2009,02,20,02,42,-2.10
2009,02,20,02,43,-2.10
2009,02,20,02,44,-2.10
2009,02,20,02,45,-2.10
2009,02,20,02,46,-2.20
2009,02,20,02,47,-2.20
2009,02,20,02,48,-2.20
2009,02,20,02,49,-2.20
2009,02,20,02,50,-2.20
2009,02,20,02,51,-2.20
2009,02,20,02,52,-2.20
2009,02,20,02,53,-2.20
2009,02,20,02,54,-2.20
2009,02,20,02,55,-2.20
2009,02,20,02,56,-2.20
2009,02,20,02,57,-2.20
2009,02,20,02,58,-2.20
2009,02,20,02,59,-2.20
2009,02,20,03,00,-2.20
2009,02,20,03,01,-2.20
2009,02,20,03,02,-2.20
2009,02,20,03,03,-2.20
2009,02,20,03,04,-2.20
2009,02,20,03,05,-2.20
2009,02,20,03,06,-2.20
2009,02,20,03,07,-2.20
2009,02,20,03,08,-2.20
2009,02,20,03,09,-2.20
2009,02,20,03,10,-2.20
2009,02,20,03,11,-2.20
2009,02,20,03,12,-2.20
2009,02,20,03,13,-2.30
2009,02,20,03,14,-2.30
2009,02,20,03,15,-2.30
2009,02,20,03,16,-2.30
2009,02,20,03,17,-2.30
2009,02,20,03,18,-2.30
2009,02,20,03,19,-2.30
2009,02,20,03,20,-2.40
2009,02,20,03,21,-2.40
2009,02,20,03,22,-2.40
2009,02,20,03,23,-2.30
2009,02,20,03,24,-2.30
2009,02,20,03,25,-2.30
2009,02,20,03,26,-2.30
2009,02,20,03,27,-2.30
2009,02,20,03,28,-2.30
2009,02,20,03,29,-2.30
2009,02,20,03,30,-2.30
2009,02,20,03,31,-2.30
2009,02,20,03,32,-2.30
2009,02,20,03,33,-2.30
2009,02,20,03,34,-2.30
2009,02,20,03,35,-2.30
2009,02,20,03,36,-2.30
2009,02,20,03,37,-2.30
2009,02,20,03,38,-2.30
2009,02,20,03,39,-2.30
2009,02,20,03,40,-2.30
2009,02,20,03,41,-2.30
2009,02,20,03,42,-2.30
2009,02,20,03,43,-2.30
2009,02,20,03,44,-2.30
2009,02,20,03,45,-2.30
2009,02,20,03,46,-2.40
2009,02,20,03,47,-2.40
2009,02,20,03,48,-2.40
2009,02,20,03,49,-2.40
2009,02,20,03,50,-2.40
2009,02,20,03,51,-2.40
2009,02,20,03,52,-2.40
2009,02,20,03,53,-2.40
2009,02,20,03,54,-2.40
2009,02,20,03,55,-2.40
2009,02,20,03,56,-2.50
2009,02,20,03,57,-2.50
2009,02,20,03,58,-2.50
2009,02,20,03,59,-2.50
2009,02,20,04,00,-2.50
2009,02,20,04,01,-2.50
2009,02,20,04,02,-2.50
2009,02,20,04,03,-2.50
2009,02,20,04,05,-2.60
2009,02,20,04,06,-2.60
2009,02,20,04,07,-2.60
2009,02,20,04,08,-2.60
2009,02,20,04,09,-2.60
2009,02,20,04,10,-2.60
2009,02,20,04,11,-2.60
2009,02,20,04,12,-2.60
2009,02,20,04,13,-2.60
2009,02,20,04,14,-2.60
2009,02,20,04,15,-2.60
2009,02,20,04,16,-2.60
2009,02,20,04,17,-2.60
2009,02,20,04,18,-2.70
2009,02,20,04,19,-2.70
2009,02,20,04,20,-2.70
2009,02,20,04,21,-2.70
2009,02,20,04,22,-2.70
2009,02,20,04,23,-2.70
2009,02,20,04,24,-2.70
2009,02,20,04,25,-2.70
2009,02,20,04,26,-2.70
2009,02,20,04,27,-2.70
2009,02,20,04,28,-2.70
2009,02,20,04,29,-2.70
2009,02,20,04,30,-2.70
2009,02,20,04,31,-2.70
2009,02,20,04,32,-2.70
2009,02,20,04,33,-2.70
2009,02,20,04,34,-2.70
2009,02,20,04,35,-2.70
2009,02,20,04,36,-2.70
2009,02,20,04,37,-2.70
2009,02,20,04,38,-2.70
2009,02,20,04,39,-2.70
2009,02,20,04,40,-2.70
2009,02,20,04,41,-2.70
2009,02,20,04,42,-2.70
2009,02,20,04,43,-2.70
2009,02,20,04,44,-2.70
2009,02,20,04,45,-2.70
2009,02,20,04,46,-2.80
2009,02,20,04,47,-2.80
2009,02,20,04,48,-2.80
2009,02,20,04,49,-2.80
2009,02,20,04,50,-2.80
2009,02,20,04,51,-2.80
2009,02,20,04,52,-2.80
2009,02,20,04,53,-2.80
2009,02,20,04,54,-2.80
2009,02,20,04,55,-2.80
2009,02,20,04,56,-2.90
2009,02,20,04,57,-2.90
2009,02,20,04,58,-2.90
2009,02,20,04,59,-2.90
2009,02,20,05,00,-2.90
2009,02,20,05,01,-2.90
2009,02,20,05,02,-2.90
2009,02,20,05,03,-2.90
2009,02,20,05,04,-2.90
2009,02,20,05,05,-3.00
2009,02,20,05,06,-3.00
2009,02,20,05,07,-3.00
2009,02,20,05,08,-3.00
2009,02,20,05,09,-3.10
2009,02,20,05,10,-3.10
2009,02,20,05,11,-3.10
2009,02,20,05,12,-3.10
2009,02,20,05,13,-3.10
2009,02,20,05,14,-3.10
2009,02,20,05,15,-3.10
2009,02,20,05,16,-3.20
2009,02,20,05,17,-3.20
2009,02,20,05,18,-3.20
2009,02,20,05,19,-3.20
2009,02,20,05,20,-3.20
2009,02,20,05,21,-3.20
2009,02,20,05,22,-3.20
2009,02,20,05,23,-3.20
2009,02,20,05,24,-3.20
2009,02,20,05,25,-3.20
2009,02,20,05,26,-3.20
2009,02,20,05,27,-3.10
2009,02,20,05,28,-3.10
2009,02,20,05,29,-3.10
2009,02,20,05,30,-3.10
2009,02,20,05,31,-3.10
2009,02,20,05,32,-3.10
2009,02,20,05,33,-3.10
2009,02,20,05,34,-3.10
2009,02,20,05,35,-3.10
2009,02,20,05,36,-3.10
2009,02,20,05,37,-3.10
2009,02,20,05,38,-3.10
2009,02,20,05,39,-3.10
2009,02,20,05,40,-3.10
2009,02,20,05,41,-3.10
2009,02,20,05,42,-3.10
2009,02,20,05,43,-3.10
2009,02,20,05,44,-3.10
2009,02,20,05,45,-3.10
2009,02,20,05,46,-3.10
2009,02,20,05,47,-3.10
2009,02,20,05,48,-3.10
2009,02,20,05,49,-3.10
2009,02,20,05,50,-3.10
2009,02,20,05,51,-3.10
2009,02,20,05,52,-3.00
2009,02,20,05,53,-3.00
2009,02,20,05,54,-2.90
2009,02,20,05,55,-2.90
2009,02,20,05,56,-2.90
2009,02,20,05,57,-2.90
2009,02,20,05,58,-2.90
2009,02,20,05,59,-2.90
2009,02,20,06,00,-2.90
2009,02,20,06,01,-2.90
2009,02,20,06,02,-2.90
2009,02,20,06,03,-2.90
2009,02,20,06,04,-2.90
2009,02,20,06,05,-2.90
2009,02,20,06,06,-2.90
2009,02,20,06,07,-2.90
2009,02,20,06,08,-2.90
2009,02,20,06,09,-2.90
2009,02,20,06,10,-3.00
2009,02,20,06,11,-3.00
2009,02,20,06,12,-3.00
2009,02,20,06,13,-3.00
2009,02,20,06,14,-3.00
2009,02,20,06,15,-3.00
2009,02,20,06,16,-3.00
2009,02,20,06,17,-3.10
2009,02,20,06,18,-3.10
2009,02,20,06,19,-3.10
2009,02,20,06,20,-3.10
2009,02,20,06,21,-3.20
2009,02,20,06,22,-3.20
2009,02,20,06,23,-3.20
2009,02,20,06,24,-3.20
2009,02,20,06,25,-3.20
2009,02,20,06,26,-3.20
2009,02,20,06,27,-3.20
2009,02,20,06,28,-3.20
2009,02,20,06,29,-3.20
2009,02,20,06,30,-3.20
2009,02,20,06,31,-3.20
2009,02,20,06,32,-3.20
2009,02,20,06,33,-3.20
2009,02,20,06,34,-3.30
2009,02,20,06,35,-3.30
2009,02,20,06,36,-3.30
2009,02,20,06,37,-3.30
2009,02,20,06,38,-3.30
2009,02,20,06,39,-3.30
2009,02,20,06,40,-3.30
2009,02,20,06,41,-3.30
2009,02,20,06,42,-3.30
2009,02,20,06,43,-3.30
2009,02,20,06,44,-3.30
2009,02,20,06,45,-3.30
2009,02,20,06,46,-3.20
2009,02,20,06,47,-3.20
2009,02,20,06,48,-3.20
2009,02,20,06,49,-3.20
2009,02,20,06,50,-3.20
2009,02,20,06,51,-3.20
2009,02,20,06,52,-3.20
2009,02,20,06,53,-3.20
2009,02,20,06,54,-3.20
2009,02,20,06,55,-3.20
2009,02,20,06,56,-3.20
2009,02,20,06,57,-3.20
2009,02,20,06,58,-3.20
2009,02,20,06,59,-3.20
2009,02,20,07,00,-3.20
2009,02,20,07,01,-3.20
2009,02,20,07,02,-3.20
2009,02,20,07,03,-3.20
2009,02,20,07,04,-3.20
2009,02,20,07,05,-3.20
2009,02,20,07,06,-3.20
2009,02,20,07,07,-3.20
2009,02,20,07,08,-3.20
2009,02,20,07,09,-3.20
2009,02,20,07,10,-3.20
2009,02,20,07,11,-3.20
2009,02,20,07,12,-3.30
2009,02,20,07,13,-3.30
2009,02,20,07,14,-3.30
2009,02,20,07,15,-3.30
2009,02,20,07,16,-3.30
2009,02,20,07,17,-3.30
2009,02,20,07,18,-3.30
2009,02,20,07,19,-3.40
2009,02,20,07,20,-3.40
2009,02,20,07,21,-3.40
2009,02,20,07,22,-3.40
2009,02,20,07,23,-3.40
2009,02,20,07,24,-3.40
2009,02,20,07,25,-3.40
2009,02,20,07,26,-3.30
2009,02,20,07,27,-3.30
2009,02,20,07,28,-3.40
2009,02,20,07,29,-3.40
2009,02,20,07,30,-3.40
2009,02,20,07,31,-3.40
2009,02,20,07,32,-3.40
2009,02,20,07,33,-3.40
2009,02,20,07,34,-3.40
2009,02,20,07,35,-3.50
2009,02,20,07,36,-3.50
2009,02,20,07,37,-3.50
2009,02,20,07,38,-3.50
2009,02,20,07,39,-3.50
2009,02,20,07,40,-3.50
2009,02,20,07,41,-3.40
2009,02,20,07,42,-3.40
2009,02,20,07,43,-3.40
2009,02,20,07,44,-3.30
2009,02,20,07,45,-3.30
2009,02,20,07,46,-3.30
2009,02,20,07,47,-3.20
2009,02,20,07,48,-3.20
2009,02,20,07,49,-3.20
2009,02,20,07,50,-3.20
2009,02,20,07,51,-3.20
2009,02,20,07,52,-3.20
2009,02,20,07,53,-3.10
2009,02,20,07,54,-3.10
2009,02,20,07,55,-3.10
2009,02,20,07,56,-3.10
2009,02,20,07,57,-3.10
2009,02,20,07,58,-3.00
2009,02,20,07,59,-3.00
2009,02,20,08,00,-3.00
2009,02,20,08,01,-3.00
2009,02,20,08,02,-2.90
2009,02,20,08,03,-2.90
2009,02,20,08,04,-2.90
2009,02,20,08,05,-2.90
2009,02,20,08,06,-2.80
2009,02,20,08,07,-2.80
2009,02,20,08,08,-2.80
2009,02,20,08,09,-2.70
2009,02,20,08,10,-2.70
2009,02,20,08,11,-2.70
2009,02,20,08,12,-2.60
2009,02,20,08,13,-2.50
2009,02,20,08,14,-2.50
2009,02,20,08,15,-2.40
2009,02,20,08,16,-2.40
2009,02,20,08,17,-2.40
2009,02,20,08,18,-2.30
2009,02,20,08,19,-2.30
2009,02,20,08,20,-2.30
2009,02,20,08,21,-2.20
2009,02,20,08,22,-2.20
2009,02,20,08,23,-2.10
2009,02,20,08,24,-2.10
2009,02,20,08,25,-2.00
2009,02,20,08,26,-1.90
2009,02,20,08,27,-1.90
2009,02,20,08,28,-1.80
2009,02,20,08,29,-1.70
2009,02,20,08,30,-1.60
2009,02,20,08,31,-1.50
2009,02,20,08,32,-1.40
2009,02,20,08,33,-1.30
2009,02,20,08,34,-1.20
2009,02,20,08,35,-1.20
2009,02,20,08,36,-1.10
2009,02,20,08,37,-1.10
2009,02,20,08,38,-1.00
2009,02,20,08,39,-1.00
2009,02,20,08,40,-1.00
2009,02,20,08,41,-1.00
2009,02,20,08,42,-0.90
2009,02,20,08,43,-0.90
2009,02,20,08,44,-0.90
2009,02,20,08,45,-0.90
2009,02,20,08,46,-0.80
2009,02,20,08,47,-0.80
2009,02,20,08,48,-0.80
2009,02,20,08,49,-0.70
2009,02,20,08,50,-0.60
2009,02,20,08,51,-0.60
2009,02,20,08,52,-0.50
2009,02,20,08,53,-0.50
2009,02,20,08,54,-0.40
2009,02,20,08,55,-0.40
2009,02,20,08,56,-0.40
2009,02,20,08,57,-0.40
2009,02,20,08,58,-0.30
2009,02,20,08,59,-0.30
2009,02,20,09,00,-0.30
2009,02,20,09,01,-0.20
2009,02,20,09,02,-0.20
2009,02,20,09,03,-0.20
2009,02,20,09,04,-0.20
2009,02,20,09,05,-0.10
2009,02,20,09,06,-0.10
2009,02,20,09,07,-0.10
2009,02,20,09,08,-0.10
2009,02,20,09,09,0.00
2009,02,20,09,10,0.00
2009,02,20,09,11,0.00
2009,02,20,09,12,0.10
2009,02,20,09,13,0.10
2009,02,20,09,14,0.20
2009,02,20,09,15,0.20
2009,02,20,09,16,0.20
2009,02,20,09,17,0.30
2009,02,20,09,18,0.30
2009,02,20,09,19,0.40
2009,02,20,09,20,0.40
2009,02,20,09,21,0.50
2009,02,20,09,22,0.50
2009,02,20,09,23,0.60
2009,02,20,09,24,0.60
2009,02,20,09,25,0.60
2009,02,20,09,26,0.70
2009,02,20,09,27,0.70
2009,02,20,09,28,0.70
2009,02,20,09,29,0.80
2009,02,20,09,30,0.90
2009,02,20,09,31,0.90
2009,02,20,09,32,1.00
2009,02,20,09,33,1.10
2009,02,20,09,34,1.10
2009,02,20,09,35,1.20
2009,02,20,09,36,1.20
2009,02,20,09,37,1.30
2009,02,20,09,38,1.30
2009,02,20,09,39,1.30
2009,02,20,09,40,1.30
2009,02,20,09,41,1.40
2009,02,20,09,42,1.50
2009,02,20,09,43,1.60
2009,02,20,09,44,1.70
2009,02,20,09,45,1.70
2009,02,20,09,46,1.70
2009,02,20,09,47,1.80
2009,02,20,09,48,1.90
2009,02,20,09,49,1.90
2009,02,20,09,50,2.00
2009,02,20,09,51,2.10
2009,02,20,09,52,2.20
2009,02,20,09,53,2.30
2009,02,20,09,54,2.30
2009,02,20,09,55,2.40
2009,02,20,09,56,2.50
2009,02,20,09,57,2.50
2009,02,20,09,58,2.60
2009,02,20,09,59,2.60
2009,02,20,10,00,2.70
2009,02,20,10,01,2.70
2009,02,20,10,02,2.80
2009,02,20,10,03,2.80
2009,02,20,10,04,2.80
2009,02,20,10,05,2.90
2009,02,20,10,06,3.00
2009,02,20,10,07,3.10
2009,02,20,10,08,3.10
2009,02,20,10,09,3.20
2009,02,20,10,10,3.20
2009,02,20,10,11,3.30
2009,02,20,10,12,3.40
2009,02,20,10,13,3.50
2009,02,20,10,14,3.60
2009,02,20,10,15,3.70
2009,02,20,10,16,3.80
2009,02,20,10,17,3.90
2009,02,20,10,18,4.00
2009,02,20,10,19,4.10
2009,02,20,10,20,4.20
2009,02,20,10,21,4.30
2009,02,20,10,22,4.40
2009,02,20,10,23,4.50
2009,02,20,10,24,4.60
2009,02,20,10,25,4.70
2009,02,20,10,26,4.80
2009,02,20,10,27,4.80
2009,02,20,10,28,4.90
2009,02,20,10,29,5.00
2009,02,20,10,30,5.10
2009,02,20,10,31,5.20
2009,02,20,10,32,5.20
2009,02,20,10,33,5.20
2009,02,20,10,34,5.20
2009,02,20,10,35,5.20
2009,02,20,10,36,5.10
2009,02,20,10,37,5.20
2009,02,20,10,38,5.20
2009,02,20,10,39,5.20
2009,02,20,10,40,5.20
2009,02,20,10,41,5.20
2009,02,20,10,42,5.20
2009,02,20,10,43,5.30
2009,02,20,10,44,5.40
2009,02,20,10,45,5.40
2009,02,20,10,46,5.50
2009,02,20,10,47,5.60
2009,02,20,10,48,5.70
2009,02,20,10,49,5.80
2009,02,20,10,50,5.80
2009,02,20,10,51,5.90
2009,02,20,10,52,5.90
2009,02,20,10,53,6.00
2009,02,20,10,54,6.00
2009,02,20,10,55,6.10
2009,02,20,10,56,6.10
2009,02,20,10,57,6.10
2009,02,20,10,58,6.20
2009,02,20,10,59,6.20
2009,02,20,11,00,6.30
2009,02,20,11,01,6.30
2009,02,20,11,02,6.40
2009,02,20,11,03,6.50
2009,02,20,11,04,6.60
2009,02,20,11,05,6.70
2009,02,20,11,06,6.70
2009,02,20,11,07,6.80
2009,02,20,11,08,6.90
2009,02,20,11,09,7.00
2009,02,20,11,10,7.00
2009,02,20,11,11,7.10
2009,02,20,11,12,7.10
2009,02,20,11,13,7.10
2009,02,20,11,14,7.20
2009,02,20,11,15,7.20
2009,02,20,11,16,7.20
2009,02,20,11,17,7.30
2009,02,20,11,18,7.30
2009,02,20,11,19,7.40
2009,02,20,11,20,7.40
2009,02,20,11,21,7.50
2009,02,20,11,22,7.50
2009,02,20,11,23,7.60
2009,02,20,11,24,7.60
2009,02,20,11,25,7.70
2009,02,20,11,26,7.80
2009,02,20,11,27,7.90
2009,02,20,11,28,8.00
2009,02,20,11,29,8.10
2009,02,20,11,30,8.10
2009,02,20,11,31,8.20
2009,02,20,11,32,8.20
2009,02,20,11,33,8.30
2009,02,20,11,34,8.30
2009,02,20,11,35,8.30
2009,02,20,11,36,8.30
2009,02,20,11,37,8.40
2009,02,20,11,38,8.40
2009,02,20,11,39,8.40
2009,02,20,11,40,8.50
2009,02,20,11,41,8.50
2009,02,20,11,42,8.60
2009,02,20,11,43,8.60
2009,02,20,11,44,8.70
2009,02,20,11,45,8.60
2009,02,20,11,46,8.60
2009,02,20,11,47,8.60
2009,02,20,11,48,8.60
2009,02,20,11,49,8.60
2009,02,20,11,50,8.60
2009,02,20,11,51,8.60
2009,02,20,11,52,8.70
2009,02,20,11,53,8.70
2009,02,20,11,54,8.80
2009,02,20,11,55,8.90
2009,02,20,11,56,9.00
2009,02,20,11,57,9.10
2009,02,20,11,58,9.20
2009,02,20,11,59,9.30
2009,02,20,12,00,9.40
2009,02,20,12,01,9.50
2009,02,20,12,02,9.50
2009,02,20,12,03,9.60
2009,02,20,12,04,9.60
2009,02,20,12,05,9.60
2009,02,20,12,06,9.60
2009,02,20,12,07,9.60
2009,02,20,12,08,9.50
2009,02,20,12,09,9.60
2009,02,20,12,10,9.60
2009,02,20,12,11,9.60
2009,02,20,12,12,9.60
2009,02,20,12,13,9.70
2009,02,20,12,14,9.70
2009,02,20,12,15,9.80
2009,02,20,12,16,9.80
2009,02,20,12,17,9.80
2009,02,20,12,18,9.80
2009,02,20,12,19,9.80
2009,02,20,12,20,9.80
2009,02,20,12,21,9.80
2009,02,20,12,22,9.90
2009,02,20,12,23,9.90
2009,02,20,12,24,10.00
2009,02,20,12,25,10.10
2009,02,20,12,26,10.30
2009,02,20,12,27,10.30
2009,02,20,12,28,10.40
2009,02,20,12,29,10.40
2009,02,20,12,30,10.40
2009,02,20,12,31,10.40
2009,02,20,12,32,10.30
2009,02,20,12,33,10.30
2009,02,20,12,34,10.30
2009,02,20,12,35,10.30
2009,02,20,12,36,10.30
2009,02,20,12,37,10.20
2009,02,20,12,38,10.20
2009,02,20,12,39,10.20
2009,02,20,12,40,10.20
2009,02,20,12,41,10.30
2009,02,20,12,42,10.30
2009,02,20,12,43,10.30
2009,02,20,12,44,10.40
2009,02,20,12,45,10.50
2009,02,20,12,46,10.60
2009,02,20,12,47,10.70
2009,02,20,12,48,10.80
2009,02,20,12,49,10.90
2009,02,20,12,50,11.00
2009,02,20,12,51,11.00
2009,02,20,12,52,11.00
2009,02,20,12,53,11.00
2009,02,20,12,54,11.00
2009,02,20,12,55,11.00
2009,02,20,12,56,11.00
2009,02,20,12,57,11.10
2009,02,20,12,58,11.20
2009,02,20,12,59,11.20
2009,02,20,13,00,11.30
2009,02,20,13,01,11.30
2009,02,20,13,02,11.40
2009,02,20,13,03,11.40
2009,02,20,13,04,11.50
2009,02,20,13,05,11.50
2009,02,20,13,06,11.60
2009,02,20,13,07,11.60
2009,02,20,13,08,11.60
2009,02,20,13,09,11.60
2009,02,20,13,10,11.60
2009,02,20,13,11,11.60
2009,02,20,13,12,11.60
2009,02,20,13,13,11.60
2009,02,20,13,14,11.60
2009,02,20,13,15,11.60
2009,02,20,13,16,11.60
2009,02,20,13,17,11.60
2009,02,20,13,18,11.60
2009,02,20,13,19,11.60
2009,02,20,13,20,11.50
2009,02,20,13,21,11.50
2009,02,20,13,22,11.50
2009,02,20,13,23,11.60
2009,02,20,13,24,11.60
2009,02,20,13,25,11.60
2009,02,20,13,26,11.60
2009,02,20,13,27,11.60
2009,02,20,13,28,11.50
2009,02,20,13,29,11.50
2009,02,20,13,30,11.40
2009,02,20,13,31,11.40
2009,02,20,13,32,11.30
2009,02,20,13,33,11.30
2009,02,20,13,34,11.30
2009,02,20,13,35,11.30
2009,02,20,13,36,11.30
2009,02,20,13,37,11.30
2009,02,20,13,38,11.30
2009,02,20,13,39,11.20
2009,02,20,13,40,11.20
2009,02,20,13,41,11.20
2009,02,20,13,42,11.10
2009,02,20,13,43,11.10
2009,02,20,13,44,11.10
2009,02,20,13,45,11.10
2009,02,20,13,46,11.10
2009,02,20,13,47,11.20
2009,02,20,13,48,11.30
2009,02,20,13,49,11.40
2009,02,20,13,50,11.60
2009,02,20,13,51,11.70
2009,02,20,13,52,11.80
2009,02,20,13,53,11.90
2009,02,20,13,54,12.00
2009,02,20,13,55,12.10
2009,02,20,13,56,12.10
2009,02,20,13,57,12.10
2009,02,20,13,58,12.20
2009,02,20,13,59,12.20
2009,02,20,14,00,12.10
2009,02,20,14,01,12.10
2009,02,20,14,02,12.10
2009,02,20,14,03,12.10
2009,02,20,14,04,12.10
2009,02,20,14,05,12.20
2009,02,20,14,06,12.20
2009,02,20,14,07,12.20
2009,02,20,14,08,12.20
2009,02,20,14,09,12.20
2009,02,20,14,10,12.20
2009,02,20,14,11,12.10
2009,02,20,14,12,12.10
2009,02,20,14,13,12.20
2009,02,20,14,14,12.20
2009,02,20,14,15,12.20
2009,02,20,14,16,12.30
2009,02,20,14,17,12.30
2009,02,20,14,18,12.30
2009,02,20,14,19,12.30
2009,02,20,14,20,12.30
2009,02,20,14,21,12.30
2009,02,20,14,22,12.30
2009,02,20,14,23,12.40
2009,02,20,14,24,12.50
2009,02,20,14,25,12.50
2009,02,20,14,26,12.60
2009,02,20,14,27,12.60
2009,02,20,14,28,12.60
2009,02,20,14,29,12.60
2009,02,20,14,30,12.50
2009,02,20,14,31,12.40
2009,02,20,14,32,12.40
2009,02,20,14,33,12.30
2009,02,20,14,34,12.30
2009,02,20,14,35,12.20
2009,02,20,14,36,12.20
2009,02,20,14,37,12.20
2009,02,20,14,38,12.20
2009,02,20,14,39,12.20
2009,02,20,14,40,12.30
2009,02,20,14,41,12.30
2009,02,20,14,42,12.30
2009,02,20,14,43,12.30
2009,02,20,14,44,12.30
2009,02,20,14,45,12.30
2009,02,20,14,46,12.30
2009,02,20,14,47,12.20
2009,02,20,14,48,12.10
2009,02,20,14,49,12.00
2009,02,20,14,50,12.00
2009,02,20,14,51,12.00
2009,02,20,14,52,11.90
2009,02,20,14,53,11.90
2009,02,20,14,54,11.80
2009,02,20,14,55,11.80
2009,02,20,14,56,11.70
2009,02,20,14,57,11.70
2009,02,20,14,58,11.70
2009,02,20,14,59,11.70
2009,02,20,15,00,11.70
2009,02,20,15,01,11.70
2009,02,20,15,02,11.70
2009,02,20,15,03,11.70
2009,02,20,15,04,11.70
2009,02,20,15,05,11.70
2009,02,20,15,06,11.70
2009,02,20,15,07,11.70
2009,02,20,15,08,11.80
2009,02,20,15,09,11.80
2009,02,20,15,10,11.70
2009,02,20,15,11,11.70
2009,02,20,15,12,11.70
2009,02,20,15,13,11.70
2009,02,20,15,14,11.60
2009,02,20,15,15,11.60
2009,02,20,15,16,11.60
2009,02,20,15,17,11.60
2009,02,20,15,18,11.60
2009,02,20,15,19,11.60
2009,02,20,15,20,11.70
2009,02,20,15,21,11.70
2009,02,20,15,22,11.70
2009,02,20,15,23,11.70
2009,02,20,15,24,11.70
2009,02,20,15,25,11.60
2009,02,20,15,26,11.60
2009,02,20,15,27,11.60
2009,02,20,15,28,11.60
2009,02,20,15,29,11.60
2009,02,20,15,30,11.60
2009,02,20,15,31,11.70
2009,02,20,15,32,11.70
2009,02,20,15,33,11.70
2009,02,20,15,34,11.70
2009,02,20,15,35,11.80
2009,02,20,15,36,11.80
2009,02,20,15,37,11.80
2009,02,20,15,38,11.80
2009,02,20,15,39,11.80
2009,02,20,15,40,11.80
2009,02,20,15,41,11.80
2009,02,20,15,42,11.80
2009,02,20,15,43,11.80
2009,02,20,15,44,11.80
2009,02,20,15,45,11.70
2009,02,20,15,46,11.70
2009,02,20,15,47,11.70
2009,02,20,15,48,11.70
2009,02,20,15,49,11.70
2009,02,20,15,50,11.60
2009,02,20,15,51,11.60
2009,02,20,15,52,11.60
2009,02,20,15,53,11.50
2009,02,20,15,54,11.50
2009,02,20,15,55,11.40
2009,02,20,15,56,11.40
2009,02,20,15,57,11.40
2009,02,20,15,58,11.40
2009,02,20,15,59,11.40
2009,02,20,16,00,11.50
2009,02,20,16,01,11.50
2009,02,20,16,02,11.50
2009,02,20,16,03,11.50
2009,02,20,16,04,11.50
2009,02,20,16,05,11.50
2009,02,20,16,06,11.50
2009,02,20,16,07,11.50
2009,02,20,16,08,11.40
2009,02,20,16,09,11.40
2009,02,20,16,10,11.40
2009,02,20,16,11,11.40
2009,02,20,16,12,11.40
2009,02,20,16,13,11.40
2009,02,20,16,14,11.40
2009,02,20,16,15,11.40
2009,02,20,16,16,11.40
2009,02,20,16,17,11.40
2009,02,20,16,18,11.40
2009,02,20,16,19,11.40
2009,02,20,16,20,11.40
2009,02,20,16,21,11.30
2009,02,20,16,22,11.30
2009,02,20,16,23,11.30
2009,02,20,16,24,11.30
2009,02,20,16,25,11.30
2009,02,20,16,26,11.30
2009,02,20,16,27,11.30
2009,02,20,16,28,11.30
2009,02,20,16,29,11.30
2009,02,20,16,30,11.30
2009,02,20,16,31,11.30
2009,02,20,16,32,11.20
2009,02,20,16,33,11.20
2009,02,20,16,34,11.20
2009,02,20,16,35,11.10
2009,02,20,16,36,11.10
2009,02,20,16,37,11.10
2009,02,20,16,38,11.10
2009,02,20,16,39,11.00
2009,02,20,16,40,11.00
2009,02,20,16,41,10.90
2009,02,20,16,42,10.90
2009,02,20,16,43,10.90
2009,02,20,16,44,10.80
2009,02,20,16,45,10.80
2009,02,20,16,46,10.80
2009,02,20,16,47,10.80
2009,02,20,16,48,10.80
2009,02,20,16,49,10.80
2009,02,20,16,50,10.80
2009,02,20,16,51,10.70
2009,02,20,16,52,10.60
2009,02,20,16,53,10.60
2009,02,20,16,54,10.50
2009,02,20,16,55,10.40
2009,02,20,16,56,10.30
2009,02,20,16,57,10.30
2009,02,20,16,58,10.30
2009,02,20,16,59,10.20
2009,02,20,17,00,10.20
2009,02,20,17,01,10.20
2009,02,20,17,02,10.10
2009,02,20,17,03,10.10
2009,02,20,17,04,10.10
2009,02,20,17,05,10.10
2009,02,20,17,06,10.10
2009,02,20,17,07,10.10
2009,02,20,17,08,10.00
2009,02,20,17,09,9.90
2009,02,20,17,10,9.90
2009,02,20,17,11,9.90
2009,02,20,17,12,9.80
2009,02,20,17,13,9.80
2009,02,20,17,14,9.70
2009,02,20,17,15,9.70
2009,02,20,17,16,9.70
2009,02,20,17,17,9.60
2009,02,20,17,18,9.60
2009,02,20,17,19,9.50
2009,02,20,17,20,9.50
2009,02,20,17,21,9.40
2009,02,20,17,22,9.40
2009,02,20,17,23,9.30
2009,02,20,17,24,9.30
2009,02,20,17,25,9.30
2009,02,20,17,26,9.30
2009,02,20,17,27,9.20
2009,02,20,17,28,9.20
2009,02,20,17,29,9.20